Hourly Weather Roundup
Issued by NWS Central Illinois

Home | Current Version | Previous Version | Text Only | Print | Product List | Glossary On
Versions: 1 2 3 4 5 6 7 8 9 10 11 12 13 14 15 16 17 18 19 20 21 22 23 24 25 26 27 28 29 30 31 32 33 34 35 36 37 38 39 40 41 42 43 44 45 46 47 48 49 50
000
NZUS43 KILX 310510
HWRILX

AREA WEATHER ROUNDUP
NATIONAL WEATHER SERVICE, LINCOLN IL
1200 AM CDT FRI JUL 31 2015


CITY           SKY/WX    TMP DP  RH WIND       PRES   REMARKS
BLOOMINGTON    CLEAR     73  66  78 W7        30.09S
CHAMPAIGN      CLEAR     68  64  87 W3        30.08S
DANVILLE       CLEAR     65  64  97 SW3       30.05S
DECATUR        CLEAR     76  64  66 W7        30.09S
EFFINGHAM      CLEAR     71  63  75 W3        30.11S
FLORA          CLEAR     75  64  69 W8        30.10S
GALESBURG      CLEAR     69  64  83 W3        30.09S
JACKSONVILLE   CLEAR     71  67  88 SW3       30.11R
LACON          CLEAR     71  65  84 CALM      30.06S
LAWRENCEVILLE  CLEAR     71  66  84 NW6       30.09R
LITCHFIELD     CLEAR     69  64  86 W5        30.12S
$$


CITY           SKY/WX    TMP DP  RH WIND       PRES   REMARKS
LINCOLN        CLEAR     76  65  68 W3        30.08S
MACOMB         CLEAR     67  66  96 W5        30.11F
MATTOON        CLEAR     72  63  73 W6        30.08S
MT CARMEL AP   CLEAR     72  64  78 CALM      30.09S
OLNEY-NOBLE AP CLEAR     72  66  83 W6        30.10S
PARIS          CLEAR     65  64  96 SW3       30.09S
PEORIA         CLEAR     76  65  68 W5        30.08S
PONTIAC        CLEAR     71  68  91 W3        30.06S
RANTOUL        CLEAR     71  67  87 W3        30.07F
ROBINSON       CLEAR     67  65  94 CALM      30.09S
SPRINGFIELD    CLEAR     69  65  86 W7        30.10S
TAYLORVILLE    CLEAR     68  64  88 W6        30.10S
$$

...REGIONAL REPORTS...


CITY           SKY/WX    TMP DP  RH WIND       PRES   REMARKS
CHICAGO O`HARE CLEAR     75  59  57 W10       30.02R
KANKAKEE       CLEAR     72  67  83 W6        30.04F
MOLINE         CLEAR     70  65  84 CALM      30.07S
MOUNT STERLING NOT AVBL
MOUNT VERNON   CLEAR     66  61  82 CALM      30.11S
PITTSFIELD     CLEAR     74  65  73 W5        30.13S
QUINCY         CLEAR     71  65  81 W6        30.12R
ROCKFORD       CLEAR     71  58  63 W6        30.05S
$$


CITY           SKY/WX    TMP DP  RH WIND       PRES   REMARKS
BURLINGTON     CLEAR     71  66  84 W5        30.09S
CEDAR RAPIDS   CLEAR     68  68 100 SW7       30.08S
DES MOINES     CLEAR     74  65  73 SW6       30.11S
KIRKSVILLE     CLEAR     68  64  87 SW5       30.15S
OTTUMWA        CLEAR     68  65  90 W5        30.09S
ST LOUIS       PTCLDY    77  65  66 W5        30.12F
$$


CITY           SKY/WX    TMP DP  RH WIND       PRES   REMARKS
TERRE HAUTE    CLEAR     66  63  90 CALM      30.08S
EVANSVILLE     CLEAR     75  64  68 W3        30.09S
INDIANAPOLIS   PTCLDY    71  61  70 W5        30.06S
LAFAYETTE      CLEAR     67  64  90 CALM      30.05S
MADISON        CLEAR     71  55  56 CALM      30.02S
MILWAUKEE      CLEAR     77  54  44 W8        29.99S
$$




USA.gov is the U.S. government's official web portal to all federal, state and local government web resources and services.